Location: Newark
(54.4333°N, 18.5500°E)
Time: 06:05:00
(UTC+00:00)

Envisat - Pass Details

Date: 08 December 2019
Orbit: 764 x 766 km, 98.1° (Epoch: 19 January)

Event Time Altitude Azimuth Distance (km) Brightness Sun altitude
Rises 05:50:15 0° 15° (NNE) 3,249 6.1 -8.4°
Reaches altitude 10° 05:52:34 10° 16° (NNE) 2,318 5.4 -8.1°
Maximum altitude 05:57:42 84° 105° (ESE) 778 3.1 -7.5°
Drops below altitude 10° 06:02:47 10° 194° (SSW) 2,300 5.7 -6.8°
Sets 06:05:04 0° 195° (SSW) 3,221 6.4 -6.5°
